Weather History for Mustang Island A85A, TX

Change the Weather History Date:

Friday, February 1, 2013

  Actual Average Record
Temperature  
Mean Temperature 65 °F -  
Max Temperature 68 °F - - ()
Min Temperature 62 °F - - ()
Growing Degree Days 15 (Base 50)    
Moisture  
Dew Point 46 °F    
Average Humidity 50    
Maximum Humidity 64    
Minimum Humidity 43    
Precipitation  
Precipitation 0.00 in - - ()
Sea Level Pressure  
Sea Level Pressure 30.28 in    
Wind  
Wind Speed 9 mph ()    
Max Wind Speed 20 mph    
Max Gust Speed 22 mph    
Visibility 10.0 miles    
Events      
T = Trace of Precipitation, MM = Missing Value Source: Averaged Metar Reports

Daily Weather History Graph

Daily Weather History Graph

Search for Another Location

Airport:

Trip Planner

Search our weather history database for the weather conditions in past years. The results will help you decide how hot, cold, wet, or windy it might be!

Date:

Astronomy

Feb. 01, 2013 Rise Set
Actual Time 7:11 AM CST 6:05 PM CST
Civil Twilight 6:46 AM CST 6:30 PM CST
Nautical Twilight 6:18 AM CST 6:58 PM CST
Astronomical Twilight 5:51 AM CST 7:25 PM CST
Moon 11:36 PM CST (2/1) 10:20 AM CST (2/1)
Length of Visible Light 11h 43m
Length of Day
10h 54m
Waning Gibbous, 70% of the Moon is Illuminated
Feb 1
Waning Gibbous
Feb 3
Last Quarter
Feb 10
New
Feb 17
First Quarter
Feb 25
Full

Hourly Weather History & Observations

Time (CST) Temp. Dew Point Humidity Pressure Visibility Wind Dir Wind Speed Gust Speed Precip Events Conditions
12:15 AM 62.6 °F 42.8 °F 48% 30.30 in 10.0 mi SE 5.8 mph 12.7 mph N/A   Unknown
12:35 AM 62.6 °F 44.6 °F 52% 30.30 in 10.0 mi SE 5.8 mph 12.7 mph N/A   Unknown
12:55 AM 62.6 °F 44.6 °F 52% 30.29 in 10.0 mi SE 5.8 mph 12.7 mph N/A   Unknown
1:15 AM 64.4 °F 44.6 °F 49% 30.29 in 10.0 mi ESE 8.1 mph 13.8 mph N/A   Unknown
1:35 AM 62.6 °F 44.6 °F 52% 30.29 in 10.0 mi SE 6.9 mph 13.8 mph N/A   Unknown
1:55 AM 62.6 °F 44.6 °F 52% 30.28 in 10.0 mi SE 8.1 mph - N/A   Unknown
2:15 AM 62.6 °F 44.6 °F 52% 30.28 in 10.0 mi SE 6.9 mph - N/A   Unknown
2:35 AM 62.6 °F 44.6 °F 52% 30.28 in 10.0 mi ESE 9.2 mph - N/A   Unknown
2:55 AM 64.4 °F 46.4 °F 52% 30.28 in 10.0 mi SE 6.9 mph 13.8 mph N/A   Unknown
3:15 AM 64.4 °F 46.4 °F 52% 30.28 in 10.0 mi ESE 9.2 mph - N/A   Unknown
3:35 AM 62.6 °F 44.6 °F 52% 30.29 in 10.0 mi ESE 10.4 mph - N/A   Unknown
4:15 AM 62.6 °F 44.6 °F 52% 30.29 in 10.0 mi ESE 5.8 mph - N/A   Unknown
4:35 AM 62.6 °F 44.6 °F 52% 30.29 in 10.0 mi ESE 5.8 mph - N/A   Unknown
4:55 AM 64.4 °F 44.6 °F 49% 30.29 in 10.0 mi ESE 8.1 mph - N/A   Unknown
5:15 AM 64.4 °F 44.6 °F 49% 30.29 in 10.0 mi ESE 6.9 mph - N/A   Unknown
5:35 AM 64.4 °F 44.6 °F 49% 30.29 in 10.0 mi ESE 8.1 mph - N/A   Unknown
6:15 AM 64.4 °F 42.8 °F 45% 30.30 in 10.0 mi SE 5.8 mph - N/A   Unknown
6:35 AM 64.4 °F 44.6 °F 49% 30.31 in 10.0 mi ESE 5.8 mph 11.5 mph N/A   Unknown
6:55 AM 64.4 °F 44.6 °F 49% 30.31 in 10.0 mi ESE 10.4 mph - N/A   Clear
7:15 AM 64.4 °F 44.6 °F 49% 30.31 in 10.0 mi ESE 8.1 mph - N/A   Clear
7:35 AM 64.4 °F 44.6 °F 49% 30.32 in 10.0 mi ESE 8.1 mph - N/A   Clear
7:55 AM 64.4 °F 44.6 °F 49% 30.31 in 10.0 mi ESE 9.2 mph - N/A   Clear
8:15 AM 64.4 °F 44.6 °F 49% 30.32 in 10.0 mi ESE 10.4 mph - N/A   Clear
8:35 AM 66.2 °F 44.6 °F 46% 30.33 in 10.0 mi ESE 9.2 mph - N/A   Clear
9:15 AM 66.2 °F 44.6 °F 46% 30.35 in 10.0 mi ESE 8.1 mph - N/A   Clear
9:35 AM 66.2 °F 44.6 °F 46% 30.36 in 10.0 mi ESE 8.1 mph - N/A   Clear
9:55 AM 66.2 °F 44.6 °F 46% 30.36 in 10.0 mi ESE 10.4 mph - N/A   Clear
10:15 AM 66.2 °F 44.6 °F 46% 30.36 in 10.0 mi ESE 10.4 mph - N/A   Clear
10:35 AM 66.2 °F 44.6 °F 46% 30.36 in 10.0 mi ESE 11.5 mph - N/A   Clear
10:55 AM 68.0 °F 46.4 °F 46% 30.36 in 10.0 mi ESE 8.1 mph 16.1 mph N/A   Clear
11:15 AM 66.2 °F 46.4 °F 49% 30.35 in 10.0 mi ESE 12.7 mph - N/A   Clear
11:35 AM 66.2 °F 44.6 °F 46% 30.34 in 10.0 mi ESE 13.8 mph - N/A   Clear
11:55 AM 66.2 °F 42.8 °F 43% 30.34 in 10.0 mi ESE 9.2 mph - N/A   Clear
12:15 PM 66.2 °F 44.6 °F 46% 30.33 in 10.0 mi ESE 11.5 mph - N/A   Clear
12:35 PM 66.2 °F 44.6 °F 46% 30.33 in 10.0 mi ESE 13.8 mph - N/A   Clear
12:55 PM 66.2 °F 44.6 °F 46% 30.32 in 10.0 mi ESE 11.5 mph 17.3 mph N/A   Clear
1:15 PM 66.2 °F 44.6 °F 46% 30.31 in 10.0 mi ESE 16.1 mph - N/A   Clear
1:35 PM 66.2 °F 44.6 °F 46% 30.29 in 10.0 mi ESE 16.1 mph - N/A   Clear
1:55 PM 66.2 °F 44.6 °F 46% 30.29 in 10.0 mi ESE 17.3 mph - N/A   Clear
2:15 PM 66.2 °F 44.6 °F 46% 30.28 in - ESE 15.0 mph - N/A   Clear
2:35 PM 66.2 °F 46.4 °F 49% 30.27 in 10.0 mi ESE 16.1 mph - N/A   Clear
2:55 PM 66.2 °F 46.4 °F 49% 30.27 in 10.0 mi ESE 15.0 mph - N/A   Partly Cloudy
3:15 PM 68.0 °F 46.4 °F 46% 30.26 in 10.0 mi ESE 16.1 mph - N/A   Partly Cloudy
3:35 PM 68.0 °F 48.2 °F 49% 30.25 in 10.0 mi SE 12.7 mph 21.9 mph N/A   Clear
3:55 PM 68.0 °F 46.4 °F 46% 30.25 in 10.0 mi SE 16.1 mph 21.9 mph N/A   Scattered Clouds
4:15 PM 68.0 °F 46.4 °F 46% 30.25 in 10.0 mi SE 10.4 mph 20.7 mph N/A   Scattered Clouds
4:35 PM 66.2 °F 46.4 °F 49% 30.25 in 10.0 mi ESE 13.8 mph - N/A   Partly Cloudy
4:55 PM 66.2 °F 46.4 °F 49% 30.25 in 10.0 mi ESE 12.7 mph 21.9 mph N/A   Partly Cloudy
5:15 PM 66.2 °F 48.2 °F 52% 30.24 in 10.0 mi SE 8.1 mph 20.7 mph N/A   Partly Cloudy
5:35 PM 66.2 °F 46.4 °F 49% 30.24 in 10.0 mi SE 12.7 mph 21.9 mph N/A   Scattered Clouds
5:55 PM 66.2 °F 48.2 °F 52% 30.24 in 10.0 mi ESE 15.0 mph - N/A   Partly Cloudy
6:15 PM 66.2 °F 48.2 °F 52% 30.23 in 10.0 mi ESE 19.6 mph - N/A   Partly Cloudy
6:35 PM 64.4 °F 48.2 °F 56% 30.23 in 10.0 mi ESE 15.0 mph - N/A   Unknown
6:55 PM 66.2 °F 48.2 °F 52% 30.23 in 10.0 mi ESE 17.3 mph - N/A   Unknown
7:15 PM 66.2 °F 48.2 °F 52% 30.24 in 10.0 mi ESE 16.1 mph - N/A   Unknown
7:35 PM 66.2 °F 50.0 °F 56% 30.25 in 10.0 mi ESE 15.0 mph 21.9 mph N/A   Unknown
7:55 PM 66.2 °F 50.0 °F 56% 30.25 in 10.0 mi SE 10.4 mph 19.6 mph N/A   Unknown
8:15 PM 66.2 °F 48.2 °F 52% 30.25 in 10.0 mi SE 9.2 mph 20.7 mph N/A   Unknown
8:35 PM 66.2 °F 48.2 °F 52% 30.25 in 10.0 mi SE 16.1 mph - N/A   Unknown
8:55 PM 66.2 °F 50.0 °F 56% 30.25 in 10.0 mi SE 11.5 mph 20.7 mph N/A   Unknown
9:15 PM 66.2 °F 48.2 °F 52% 30.25 in 10.0 mi SE 16.1 mph - N/A   Unknown
9:35 PM 66.2 °F 50.0 °F 56% 30.25 in 10.0 mi ESE 13.8 mph 21.9 mph N/A   Unknown
9:55 PM 66.2 °F 50.0 °F 56% 30.25 in 10.0 mi SE 13.8 mph 19.6 mph N/A   Unknown
10:15 PM 66.2 °F 50.0 °F 56% 30.25 in 10.0 mi SSE 12.7 mph 19.6 mph N/A   Unknown
10:35 PM 66.2 °F 50.0 °F 56% 30.24 in 10.0 mi SSE 15.0 mph - N/A   Unknown
10:55 PM 66.2 °F 51.8 °F 60% 30.24 in 10.0 mi SSE 13.8 mph 20.7 mph N/A   Unknown
11:15 PM 66.2 °F 51.8 °F 60% 30.23 in 10.0 mi SSE 15.0 mph 21.9 mph N/A   Unknown
11:35 PM 66.2 °F 53.6 °F 64% 30.23 in 10.0 mi SSE 15.0 mph - N/A   Unknown
11:55 PM 66.2 °F 51.8 °F 60% 30.22 in 10.0 mi SSE 13.8 mph 20.7 mph N/A   Unknown